Simultaneous Nadir Overpasses (SNOs) Predictions

Prediction of SNOs between METOP-B and NOAA-19 Satellite Orbit:

Table of predicted SNOs for the next 14.0 days since TLE Epoch: 4/26/2025
Index Date (METOP-B) Time (METOP-B) Lat,Lon (METOP-B) SZA (METOP-B ) Date (NOAA-19) Time (NOAA-19) Lat,Lon (NOAA-19) SZA (NOAA-19 ) Distance(km) Time Diff (sec)
1 04/29/2025 21:44:08 -80.87, 102.01 107.91 04/29/2025 21:42:52 -80.86, 102.15 107.94 2.73 76
2 04/29/2025 22:34:48 80.85, -90.24 72.14 04/29/2025 22:33:52 80.85, -90.18 72.12 1.12 56
3 04/29/2025 23:25:29 -80.86, 76.89 107.90 04/29/2025 23:24:48 -80.86, 76.87 107.93 0.45 41
4 04/30/2025 00:16:09 80.83,-115.37 72.15 04/30/2025 00:15:48 80.84,-115.46 72.12 1.95 21
5 04/30/2025 01:06:50 -80.85, 51.76 107.89 04/30/2025 01:06:44 -80.85, 51.59 107.92 2.99 6
6 04/30/2025 01:57:31 80.84,-140.84 72.11 04/30/2025 01:57:44 80.84,-140.75 72.13 1.81 13
7 04/30/2025 02:48:11 -80.83, 26.64 107.89 04/30/2025 02:48:39 -80.83, 26.68 107.86 0.77 28
8 04/30/2025 03:38:52 80.83,-165.97 72.12 04/30/2025 03:39:40 80.83,-166.03 72.14 1.18 48



Historial Predications of SNOs between METOP-B and NOAA-19
